Location: Alafon
(8.4500°N, 4.2333°E)
Time: 18:30:11
(UTC+00:00)

A-11 Canister half - Pass Details

Date: 10 August 2021
Orbit: 1515 x 1685 km, 47.2° (Epoch: 19 September)

Event Time Altitude Azimuth Distance (km) Brightness Sun altitude
Rises 13:14:38 0° 253° (WSW) 4,663 11.8 67.8°
Reaches altitude 10° 13:18:22 10° 265° (W) 3,695 11.5 67.0°
Maximum altitude 13:25:41 26° 318° (NW) 2,707 11.1 65.2°
Drops below altitude 10° 13:33:12 10° 10° (N) 3,786 11.2 63.5°
Sets 13:37:08 0° 23° (NNE) 4,800 11.6 62.5°
